Tracking 32136 objects as of 11-Nov-2025
HD Live streaming from Space Station
objects crossing your sky now

OBJECT A

Track OBJECT A now!
10-day predictions


NORAD ID: 52716
Int'l Code: 2022-056A
Perigee: 872.1 km
Apogee: 900.1 km
Inclination: 86.0 °
Period: 102.5 minutes
Semi major axis: 7257 km
RCS: Unknown
Launch date: May 20, 2022
Source: People's Republic of China (PRC)
Launch site: Jiuquan Satellite Launch Center, China (JSC)

Note: This is a ROCKET BODY
Your satellite tracking list
Your tracking list is empty




NASA's NSSDC Master Catalog

Two Line Element Set (TLE):
1 52716U 22056A   25314.97820924  .00000398  00000-0  23902-3 0  9991
2 52716  86.0001 120.0148 0019304 344.2533  15.8043 14.04297774178265
Source of the keplerian elements: AFSPC